STARLINK-1484 (45756 NORAD) Tracking and Keplerian Element Data

This shows tracking and keplerian element data for the satellite.

Feedback or suggestion? Click here.




ElementValue
Catalog45756
NameSTARLINK-1484
Epoch Orbit182
Epoch Day191.91670139
Epoch Year2020
RAAN166.1793
Inclination53.0017
Eccentricity0.0001421
Argument of Perigee82.5822
Mean Anonmoly14.6796
Mean Motion15.62759291
Decay Rate0.0002875
L11 45756U 20038AC 20191.91670139 .00028750 00000-0 31862-3 0 9994
L22 45756 53.0017 166.1793 0001421 82.5822 14.6796 15.62759291 1824

Live tracking and technical data element details for STARLINK-1484 (NORAD 45756). STARLINK-1484 can be tracked NOW for your location showing map with azimuth and elevation plus other details from your city location.

Track the satellite on the map from your city or location and see movement details for azimuth, elevation, latitude, longitude, range, height, and movement on the map or in text.







IsCatalogInMostPopularTable: catalog: 45756, numindb: 4
Update: records affected: 1



GetName: 45756 STARLINK-1484

Hit Count: updated at: Fri, 10 Jul 2020 15:11:59 GMT